Powrót do katalogu

CZ-6A DEB

AktywnyPO
NORAD 60706·DEBRIS·🇨🇳 China

Wystrzelony Aug 6, 2024 z Taiyuan Satellite Launch Center

Loading…

Następne Przeloty (najbliższe 24 godziny)

TLE

ŚwieżeSource: Space-Track

Epoka: Sep 14, 2026, 11:15 UTC

1 60706U 24140DK  26257.46933306  .00000377  00000-0  81067-4 0  9999
2 60706  89.0117 261.3428 0113427 326.6276  32.7816 14.52606173110748

Śledź CZ-6A DEB w czasie rzeczywistym z AllMySat

Download on the App Store